TimeCST,TemperatureF,Dew PointF,Humidity,Sea Level PressureIn,VisibilityMPH,Wind Direction,Wind SpeedMPH,Gust SpeedMPH,PrecipitationIn,Events,Conditions,WindDirDegrees,DateUTC
12:53 AM,52.0,50.0,93,29.86,8.0,South,3.5,-,N/A,,Overcast,190,2012-12-08 06:53:00
1:53 AM,53.1,50.0,89,29.86,9.0,West,3.5,-,N/A,,Mostly Cloudy,280,2012-12-08 07:53:00
2:28 AM,48.2,48.2,100,29.87,1.0,Calm,Calm,-,N/A,,Scattered Clouds,0,2012-12-08 08:28:00
2:31 AM,46.4,46.4,100,29.87,0.5,Calm,Calm,-,N/A,Fog,Fog,0,2012-12-08 08:31:00
2:37 AM,48.2,46.4,93,29.87,0.8,Calm,Calm,-,N/A,,Mist,0,2012-12-08 08:37:00
2:41 AM,48.2,46.4,93,29.87,3.0,Calm,Calm,-,N/A,,Partly Cloudy,0,2012-12-08 08:41:00
2:53 AM,48.9,48.0,97,29.86,6.0,Calm,Calm,-,N/A,,Partly Cloudy,0,2012-12-08 08:53:00
3:00 AM,48.2,48.2,100,29.87,1.8,Calm,Calm,-,N/A,,Clear,0,2012-12-08 09:00:00
3:03 AM,46.4,46.4,100,29.87,0.8,Calm,Calm,-,N/A,,Mist,0,2012-12-08 09:03:00
3:06 AM,46.4,46.4,100,29.88,0.2,Calm,Calm,-,N/A,Fog,Fog,0,2012-12-08 09:06:00
3:18 AM,46.4,44.6,93,29.88,0.8,Calm,Calm,-,N/A,,Mist,0,2012-12-08 09:18:00
3:29 AM,50.0,48.2,94,29.88,1.2,Calm,Calm,-,N/A,,Partly Cloudy,0,2012-12-08 09:29:00
3:34 AM,50.0,48.2,94,29.88,3.0,Calm,Calm,-,N/A,,Partly Cloudy,0,2012-12-08 09:34:00
3:50 AM,48.2,46.4,93,29.88,1.5,North,3.5,-,N/A,,Clear,350,2012-12-08 09:50:00
3:53 AM,46.9,46.9,100,29.88,0.8,North,3.5,-,N/A,,Mist,350,2012-12-08 09:53:00
4:00 AM,46.4,46.4,100,29.88,0.5,North,3.5,-,N/A,Fog,Fog,350,2012-12-08 10:00:00
4:09 AM,46.4,46.4,100,29.88,0.5,NNW,3.5,-,N/A,Fog,Fog,340,2012-12-08 10:09:00
4:16 AM,48.2,46.4,93,29.88,1.0,NNW,3.5,-,N/A,,Clear,330,2012-12-08 10:16:00
4:27 AM,48.2,48.2,100,29.88,3.0,NW,4.6,-,N/A,,Clear,320,2012-12-08 10:27:00
4:38 AM,46.4,46.4,100,29.88,1.8,NNW,4.6,-,N/A,,Clear,330,2012-12-08 10:38:00
4:50 AM,48.2,48.2,100,29.89,3.0,NW,3.5,-,N/A,,Scattered Clouds,320,2012-12-08 10:50:00
4:53 AM,48.9,48.0,97,29.88,4.0,North,4.6,-,N/A,,Mostly Cloudy,350,2012-12-08 10:53:00
5:00 AM,48.2,48.2,100,29.88,4.0,North,5.8,-,N/A,,Mostly Cloudy,350,2012-12-08 11:00:00
5:50 AM,48.2,46.4,93,29.90,1.8,Calm,Calm,-,N/A,,Overcast,0,2012-12-08 11:50:00
5:51 AM,48.0,46.9,96,29.89,1.5,Calm,Calm,-,N/A,,Overcast,0,2012-12-08 11:51:00
6:06 AM,48.2,48.2,100,29.90,3.0,NW,3.5,-,N/A,,Overcast,310,2012-12-08 12:06:00
6:46 AM,50.0,48.2,94,29.91,3.0,Calm,Calm,-,N/A,,Overcast,0,2012-12-08 12:46:00
6:53 AM,50.0,50.0,100,29.91,2.5,Calm,Calm,-,N/A,,Overcast,0,2012-12-08 12:53:00
7:18 AM,50.0,50.0,100,29.92,1.2,Calm,Calm,-,N/A,,Overcast,0,2012-12-08 13:18:00
7:24 AM,50.0,50.0,100,29.92,0.8,Calm,Calm,-,N/A,,Mist,0,2012-12-08 13:24:00
7:36 AM,50.0,50.0,100,29.92,0.2,Calm,Calm,-,N/A,Fog,Fog,0,2012-12-08 13:36:00
7:53 AM,50.0,50.0,100,29.92,0.2,Calm,Calm,-,N/A,Fog,Fog,0,2012-12-08 13:53:00
8:53 AM,50.0,50.0,100,29.93,0.2,North,5.8,-,N/A,Fog,Fog,10,2012-12-08 14:53:00
9:39 AM,50.0,50.0,100,29.94,0.8,NNE,8.1,-,0.00,Rain,Light Rain,30,2012-12-08 15:39:00
9:50 AM,50.0,50.0,100,29.94,1.2,NNE,4.6,-,0.00,,Overcast,30,2012-12-08 15:50:00
9:53 AM,50.0,50.0,100,29.94,1.2,NE,5.8,-,0.00,,Overcast,40,2012-12-08 15:53:00
10:08 AM,50.0,48.2,94,29.94,3.0,NE,5.8,-,N/A,,Overcast,50,2012-12-08 16:08:00
10:20 AM,50.0,48.2,94,29.94,5.0,ENE,6.9,-,N/A,,Overcast,70,2012-12-08 16:20:00
10:53 AM,50.0,48.9,96,29.93,5.0,East,4.6,-,N/A,,Overcast,90,2012-12-08 16:53:00
11:35 AM,51.8,50.0,94,29.92,3.0,East,6.9,-,N/A,,Overcast,100,2012-12-08 17:35:00
11:53 AM,51.1,50.0,96,29.91,3.0,East,5.8,-,N/A,,Overcast,100,2012-12-08 17:53:00
12:53 PM,52.0,51.1,97,29.89,4.0,SE,6.9,-,N/A,,Overcast,140,2012-12-08 18:53:00
1:12 PM,53.6,51.8,94,29.89,4.0,SE,6.9,-,N/A,,Overcast,140,2012-12-08 19:12:00
1:53 PM,54.0,50.0,86,29.87,6.0,ESE,5.8,-,N/A,,Overcast,110,2012-12-08 19:53:00
2:24 PM,53.6,50.0,88,29.87,6.0,SE,5.8,-,N/A,,Overcast,130,2012-12-08 20:24:00
2:53 PM,54.0,50.0,86,29.85,6.0,SE,5.8,-,N/A,,Overcast,130,2012-12-08 20:53:00
3:00 PM,53.6,50.0,88,29.86,6.0,ESE,5.8,-,N/A,,Overcast,120,2012-12-08 21:00:00
3:23 PM,53.6,50.0,88,29.86,6.0,ESE,6.9,-,N/A,,Overcast,120,2012-12-08 21:23:00
3:53 PM,55.0,50.0,83,29.85,6.0,SE,9.2,-,N/A,,Haze,130,2012-12-08 21:53:00
4:53 PM,54.0,50.0,86,29.85,6.0,ESE,8.1,-,N/A,,Overcast,120,2012-12-08 22:53:00
5:53 PM,54.0,51.1,90,29.85,7.0,SE,6.9,-,N/A,,Overcast,130,2012-12-08 23:53:00
6:49 PM,53.6,51.8,94,29.85,8.0,SE,11.5,-,N/A,,Overcast,130,2012-12-09 00:49:00
7:53 PM,54.0,51.1,90,29.84,7.0,SE,10.4,-,N/A,,Overcast,140,2012-12-09 01:53:00
8:29 PM,53.6,51.8,94,29.85,7.0,SE,9.2,-,N/A,,Overcast,140,2012-12-09 02:29:00
8:53 PM,54.0,51.1,90,29.84,7.0,SE,10.4,-,N/A,,Overcast,140,2012-12-09 02:53:00
9:07 PM,53.6,51.8,94,29.85,7.0,SE,10.4,-,N/A,,Overcast,140,2012-12-09 03:07:00
9:53 PM,53.1,51.1,93,29.84,7.0,SE,9.2,-,N/A,,Mostly Cloudy,140,2012-12-09 03:53:00
10:04 PM,53.6,51.8,94,29.85,7.0,SSE,8.1,-,N/A,,Overcast,150,2012-12-09 04:04:00
10:41 PM,53.6,51.8,94,29.85,7.0,SE,9.2,-,N/A,,Overcast,130,2012-12-09 04:41:00
10:53 PM,54.0,52.0,93,29.85,7.0,SSE,5.8,-,N/A,,Overcast,150,2012-12-09 04:53:00
11:18 PM,53.6,51.8,94,29.84,7.0,SE,6.9,-,N/A,,Overcast,140,2012-12-09 05:18:00
11:46 PM,53.6,51.8,94,29.84,7.0,SE,8.1,-,N/A,,Overcast,140,2012-12-09 05:46:00
11:53 PM,54.0,52.0,93,29.83,6.0,SE,8.1,-,N/A,,Overcast,140,2012-12-09 05:53:00